La Laurent Desbien - Ch'ti Bike Tour - 23/08/2008

156 Km


Pl Do. Nom - Surname Prénom - Name S-Cat /cat Club - Team TEMPS - Time Km/h BREVET
1 43 COTTIN Denis C 1 CV Bethune 04:04:44 38,25  
2 56 SOTTIAUX Sébastien B 1 Royal Vélo cLub Peruwelz Bury 04:04:44 38,25  
3 240 DEWUITE MAXIMILIEN A 1 CYCLO CLUB ARMENTIEROIS 04:04:52 38,22  
4 461 SCHENK Gerard D 1   04:04:53 38,22  
5 348 FOUCART Maxime A 2 Club de Hem 04:04:58 38,21  
6 45 QUEVA Ludovic A 3 VCU Halluinoise 04:04:59 38,21  
7 238 FAUVEZ SEBASTIEN A 4 CYCLO CLUB ARMENTIEROIS 04:05:00 38,20  
8 3 DEQUEKER Arnaud X 1   04:05:00 38,20  
9 456 ROYER Didier B 2   04:05:07 38,18  
10 4 VASSEUR Cédric X 2   04:05:09 38,18  
11 192 SPYSSCHAERT Anthony A 5   04:07:28 37,82  
12 237 SOHIER CHRISTOPHE B 3 CYCLO CLUB ARMENTIEROIS 04:08:27 37,67  
13 422 DUTALLY Jacques D 2   04:08:28 37,67  
14 451 OSSIEUR Michael A 6   04:10:31 37,36  
15 99 NICOLAS Philippe C 2 VC DU GOLFE PLOEREN 04:10:39 37,34  
16 62 DELLISSE Philippe B 4   04:11:09 37,27  
17 80 DIEPVINTS Yves C 3 Team Mailleux 04:11:11 37,26  
18 61 SEYS Gauthier A 7 RC DOULLENS 04:11:11 37,26  
19 8 LECLERCQ Franck X 3   04:11:11 37,26  
20 391 MURRUZZU Aurelien A 8   04:11:12 37,26  
21 59 FIRMIN Thierry C 4 EC Neuilly Plaisance 04:11:12 37,26  
22 189 BRAY Julian C 5 CITIHUB 04:11:12 37,26  
23 477 WAROT Boris B 5   04:11:13 37,26  
24 243 MOLLET OLIVIER B 6   04:11:14 37,25  
25 387 DELHAYE Florent A 9   04:11:16 37,25  
26 418 BRADEFER GERY A 10   04:11:17 37,25  
27 42 DULAURENT Olivier B 7 Team Mailleux 04:11:20 37,24  
28 336 LEBRAS Bruno C 6 Veloscope 04:11:21 37,24  
29 254 LECOLIER BENOIT B 8 AS HELLEMMES 04:11:24 37,23  
30 384 DENHAENE Thomas A 11   04:11:24 37,23  
31 438 BAILLEUL Thomas A 12   04:11:31 37,21  
32 76 GOEZ Patrick B 9 Team Mailleux 04:11:50 37,17  
33 150 CHAMPTOUSSEL Arnaud A 13 Roue d'Or Villuis Everly 04:12:29 37,07  
34 54 DEBROUWERE Joroen A 14   04:12:58 37,00  
35 309 DEVOS Romain A 15 Fourmies 04:13:44 36,89  
36 7 GUILLOUX Florian X 4   04:14:03 36,84  
37 430 ARMATO RAPHAEL X 5   04:15:56 36,57  
38 87 PAUMIER Fabrice B 10 Ch'ti Triat Lille 04:15:59 36,56  
39 106 LEROY Christophe B 11   04:17:34 36,34  
40 69 CROCHON Jean-Pierre E 1   04:17:52 36,30  
41 67 LHOIR Mathieu A 16 ECLSA 04:19:20 36,09  
42 417 CUVELIER Francois C 7   04:19:20 36,09  
43 114 GRILLOT Mickael B 12 EC WAMBRECHIES MARQUETTE 04:19:21 36,09  
44 299 DUHAMEL Arnaud B 13 VC Biachois 04:19:21 36,09  
45 363 LERMYTTE Marc B 14   04:19:22 36,09  
46 180 NAERT Fabrice B 15   04:19:22 36,09  
47 223 SCHERNU Christophe B 16   04:19:23 36,08  
48 73 HOBE Patrick C 8   04:19:24 36,08  
49 460 MONNERIE Jean Baptiste C 9   04:19:24 36,08  
50 380 DELHAY Frédéric B 17   04:19:25 36,08  
51 285 LEMAIRE Fabrice B 18 Vélo Club Watten 04:19:26 36,08  
52 419 VANYPER Sylvain A 17   04:19:27 36,08  
53 437 DUFOUR Bertrand B 19   04:19:30 36,07  
54 314 FLINOIS Anthony A 18 ESC Bully 04:19:30 36,07  
55 427 DESTOMBES Pascal C 10   04:19:30 36,07  
56 428 JUILLET Glenn A 19   04:19:31 36,07  
57 15 WILLIATTE Hervé D 3 SPRINTER CLUB 04:19:32 36,06  
58 453 DUPLOUY Jerome B 20   04:19:32 36,06  
59 414 DEVOS JEAN LOUIS D 4   04:19:32 36,06  
60 30 DE OLIVEIRA Oscar C 11 USCA 04:19:32 36,06  
61 20 HELLEBOIS Alain C 12 USO BL CYLISME 04:19:33 36,06  
62 159 RYCKBOSCH Jan C 13 BLIJFJONG 04:19:34 36,06  
63 450 WECHSLER Pierre B 21   04:19:34 36,06  
64 235 SWERTVAEGHER David A 20   04:19:34 36,06  
65 415 DESWARTE Michael B 22   04:19:34 36,06  
66 353 BRITSCHER Gilles C 14   04:19:34 36,06  
67 312 NOEL Guy C 15   04:19:34 36,06  
68 373 WILLEMS Werner B 23   04:19:35 36,06  
69 239 ROBERT SIMON A 21 CYCLO CLUB ARMENTIEROIS 04:19:36 36,05  
70 252 BROGNARD OLIVIER B 24   04:19:36 36,05  
71 86 DELMEE Grégory B 25 RC COMINES 04:19:37 36,05  
72 374 SANITAS Eric C 16 ROVE 04:19:37 36,05  
73 464 AUBERGET Franck C 17   04:19:38 36,05  
74 187 DE MUNTER Damien A 22   04:19:38 36,05  
75 404 JOLLIANT Olivier B 26   04:19:39 36,05  
76 370 TABARY Arduin A 23   04:19:39 36,05  
77 19 KORCZ Jean – Philippe C 18 USO BL CYLISME 04:19:40 36,04  
78 72 BOS Fabrice C 19 Etoile Cycliste Lieu Saint Amand 04:19:42 36,04  
79 1 MOREAU Francis C 20   04:19:48 36,03  
80 81 DELSAUT Trevor A 24 Amiens 04:19:48 36,03  
81 389 VAST Sebastien B 27   04:19:49 36,02  
82 261 DEVRED Sylvain A 25 SC Val d'Arée 04:19:56 36,01  
83 263 BELGUISE Mathieu A 26 Amiens Sport Cycliste 04:19:56 36,01  
84 65 GRATIOT Christian C 21 CC Vervan 04:20:54 35,88  
85 49 GEOFFROY Jean François B 28 TEAM VTT PAYS DE PEVELE 04:20:54 35,87  
86 368 LACROIX Frédéric C 22   04:20:55 35,87  
87 149 CHAMPTOUSSEL Anthony A 27 Roue d'Or Villuis Everly 04:20:55 35,87  
88 183 BONNAY Jérôme B 29 ECWM 04:20:56 35,87  
89 207 VENEL Hugues B 30 VTT XC TEAM 04:20:56 35,87  
90 357 DELBECQ Sébastien B 31   04:20:58 35,87  
91 378 BOULANGER William B 32   04:20:58 35,87  
92 289 WAROT Côme B 33 VC Watten 04:20:58 35,86  
93 39 LEJEUNE Gilles C 23   04:21:02 35,86  
94 318 BRUSSELLE DOMINIQUE C 24 Saint Omer 04:21:04 35,85  
95 236 SANTRAINE BENOIT B 34 CYCLO CLUB ARMENTIEROIS 04:21:04 35,85  
96 242 DESTEIRDT GUILLAUME A 28 SC BOURBOURG 04:21:27 35,80  
97 128 MASSELIER Vincent B 35   04:24:14 35,42  
98 10 CASTEL Gabriel B 36   04:24:15 35,42  
99 297 GOBERT Jean-François A 29 VC Biachois 04:24:49 35,34  
100 13 DEJAEGHERE Francis D 5 HALLUIN 04:24:49 35,34  
101 105 GODEBERT Florian B 37 SV SEULISIEN 04:24:51 35,34  
102 68 BAUDE Romain A 30 CC Isbergues 04:24:52 35,34  
103 413 TAILLIEZ ALAIN E 2   04:24:52 35,34  
104 31 VANOVERSCHELDE Félix D 6 Sprinter Club 04:24:53 35,34  
105 328 GRESSIER Julien A 31 CC Wizernes 04:24:53 35,34  
106 77 WELLENS Eric C 25 Team Mailleux 04:24:53 35,33  
107 385 DURAND Didier C 26   04:24:55 35,33  
108 152 BATTISTI Franck C 27 UC VARANGEVILLE 04:24:55 35,33  
109 435 CENT Nicolas A 32   04:24:55 35,33  
110 410 COTTON Fabien B 38   04:24:56 35,33  
111 122 MAHE Gilles C 28 SVP 04:24:59 35,32  
112 222 LECOUTRE Pascal B 39 RC DOULLENS 04:25:00 35,32  
113 448 LEVECQUE Eric C 29   04:25:01 35,32  
114 11 ANDRE Stéphane C 30 VC DU GOLFE PLOEREN 04:25:07 35,30  
115 457 FLIPPE Hervé C 31   04:25:09 35,30  
116 371 POINTEL Daniel C 32 Val de Reuil Triathlon 04:25:12 35,29  
117 63 VAN DOOREN Alexandre A 33 Vélo Club Espoir Condruzieu 04:25:14 35,29  
118 167 BEIRNAERT Eddy C 33   04:28:16 34,89  
119 454 OSTYN Dieter A 34   04:28:18 34,89  
120 292 CHENOIX RENE C 34   04:28:18 34,88  
121 117 DAUCHY Jean – François C 35 CC THUMERIES 04:28:23 34,87  
122 340 DUQUESNE Denis C 36   04:28:23 34,87  
123 467 VANZIELEGHEM Win B 40   04:28:24 34,87  
124 474 PIEDANNA Patrick D 7   04:28:24 34,87  
125 383 LEBEAU Philippe C 37   04:28:25 34,87  
126 92 VILLETTE Hervé D 8 ASS SARTROUVILLE 04:28:26 34,87  
127 269 LAGACHE Grégory B 41 UV Fourmies 04:28:28 34,86  
128 379 DENIMAL David B 42   04:28:37 34,84  
129 361 CATS Wim E 3   04:29:23 34,75  
130 399 CODDEVILLE Marc C 38   04:29:24 34,74  
131 78 GRENSON Leon E 4 Team Mailleux 04:29:25 34,74  
132 452 DEPRES Dominique C 39   04:29:28 34,73  
133 90 DUBART André X 6 cycling team tournai 04:29:29 34,73  
134 23 MURTA JOSE B 43   04:29:32 34,73  
135 298 DANEL Jean-Pierre D 9 VC Biachois 04:29:32 34,72  
136 449 BERNARD Vincent B 44   04:29:33 34,72  
137 398 SILLIS Bart B 45   04:29:33 34,72  
138 343 PATTINIER Manuel C 40   04:29:33 34,72  
139 304 LESNE Ludovic B 46 vélo club de neuilly 04:29:36 34,72  
140 377 MOCELLIN Eric C 41 Ardenne Pointe Cyclisme 04:31:32 34,47  
141 208 LEFEVRE Mickael B 47 Le Guidon Chalettois 04:31:48 34,44  
142 462 DREUX Thierry C 42   04:32:09 34,39  
143 186 BONNENGE Benjamin A 35   04:32:09 34,39  
144 420 LAMBINET Alain C 43   04:33:05 34,27  
145 468 VANWALLEGHEM Lieven B 48   04:33:24 34,23  
146 334 DUQUESNOY Eric B 49   04:33:30 34,22  
147 97 LEBRUN Michel C 44   04:33:31 34,22  
148 476 DUQUENOY Bruno B 50   04:33:31 34,22  
149 216 BOULERT Arnaud A 36   04:33:32 34,22  
150 293 DJENNADI Romain B 51 UV Fourmies 04:33:36 34,21  
151 158 STEENKISTE Olivier B 52 Club des Copains Cyclos – WASQUEHAL 04:33:40 34,20  
152 160 PRUVOST Eric C 45 UMS PONTAULT COMBAULT 04:33:42 34,20  
153 294 JURIE Frédéric A 37 Triathlon Sannois Franconville 04:33:43 34,20  
154 164 MOREL Sébastien A 38 CV Béthune 04:34:02 34,16  
155 436 SEYNS Gunter B 53   04:34:05 34,15  
156 110 WALLON Jean-Philippe D 10 CC LOMME 04:34:06 34,15  
157 284 BOCQUET Mathias B 54 CYCLO CLUB LOMMOIS 04:34:09 34,14  
158 64 TOURNON Damien C 46 Leforest CC 04:34:12 34,13  
159 136 DERREVEAUX Christophe B 55 Etoile cycliste Tourquennoise 04:34:44 34,07  
160 79 JANSSENS Yves B 56 Team Mailleux 04:34:56 34,04  
161 112 GOURDIN Christian X 7   04:34:56 34,04  
162 295 SEMIAO José E 5 US Bois Saint Denis Cyclisme 04:34:56 34,04  
163 162 LE MENAGER Sébastien D 11   04:34:58 34,04  
164 355 DEPLESCHIN Philippe C 47 Etoile Cycliste Fontenaisienne 04:34:58 34,04  
165 416 LAMERAND Philippe B 57   04:34:59 34,04  
166 277 DASSONVILLE Emmanuel B 58 VTT XC Team 04:35:01 34,03  
167 280 SALLEN Julien A 39 RC DOULLENS 04:35:02 34,03  
168 402 DARQUES Bertrand C 48   04:35:38 33,96  
169 245 HALLOY BENJAMIN B 59   04:36:09 33,89  
170 367 MADRY Yann B 60   04:36:37 33,84  
171 364 FLAMENT Dominique B 61   04:36:54 33,80  
172 270 CIESIELSKI Emmanuel B 62 VTT XC TEAM 04:36:54 33,80  
173 146 LUCCHI Gino E 6   04:36:54 33,80  
174 35 HERMAND Pierre E 7   04:36:54 33,80  
175 466 DEVOS Thomas C 49   04:36:54 33,80  
176 40 DELAHAYE Eric C 51 Cyclo la Bassée 04:36:55 33,80  
177 218 BOUCHER Frédéric C 50   04:36:55 33,80  
178 333 CLEMENT Philippe A 40 VTTXCTEAM 04:36:56 33,80  
179 381 GRAZZI Jimmy E 8   04:36:56 33,80  
180 211 JOLLET Fréderic C 52 VC ROUBAIX 04:36:57 33,80  
181 291 LEBRUN Christian C 53 VC Rochefort 04:36:57 33,80  
182 178 SAUSSE Thierry C 54   04:36:58 33,79  
183 135 MAERTENS Robert D 12   04:36:58 33,79  
184 5 LESAGE Xavier X 8   04:36:59 33,79  
185 347 WEBER Emmanuel A 41   04:37:00 33,79  
186 446 DEVASEYNE Thierry C 55   04:37:00 33,79  
187 98 HANOT Michel C 56 Rayon Amical de Hauteville 04:37:00 33,79  
188 12 PORCHER Yves E 9 Cyclo club Castelbriantais 04:37:01 33,79  
189 362 DELHAYE Régis D 13   04:37:01 33,79  
190 455 BATTEL Niels A 42   04:37:01 33,79  
191 231 JONNIAUX Olivier C 57   04:37:01 33,79  
192 407 DESURMONT Jean Jacques D 14   04:37:55 33,68  
193 356 VERQUAIN Pascal B 63   04:39:47 33,45  
194 227 SWERTVAEGHER Guy C 58   04:39:53 33,44  
195 324 LEPRINCE Mickael A 43 Vélo Club Hergnies 04:40:36 33,36  
196 412 SARAZIN Michel D 15   04:40:39 33,35  
197 41 LALLEMANT Guy C 59 Cyclo la Bassée 04:40:39 33,35  
198 190 DESTREBECQ Johan B 64   04:40:39 33,35  
199 268 LAILLET Philippe D 16 Guidon Chalettois 04:40:39 33,35  
200 226 DESPREZ Olivier B 65 CV Béthune 04:40:40 33,35  
201 209 MARSTON Richard C 60   04:40:41 33,35  
202 109 SOUBRIER Stéphane B 66 Club Neutre Nord Pas de Calais 04:40:41 33,35  
203 423 PONCHEL Richard D 17   04:40:41 33,35  
204 161 DESBLACHES Didier E 10   04:40:42 33,34  
205 358 GHESQUIERE Jean-Renée D 18   04:40:42 33,34  
206 425 IINO Ken B 67   04:40:43 33,34  
207 301 VILLANCE Julien D 19 Bouillon 04:40:44 33,34  
208 471 BAILLY Jacques D 20   04:40:47 33,34  
209 184 COUTURE Christophe E 11 ECC PHALEMPIN 04:40:47 33,33  
210 14 DELFORT Yannick B 68 ALLEZ DENAIN 04:40:48 33,33  
211 424 DUTALLY Yannick B 69   04:40:48 33,33  
212 443 SEYNS Pieter A 44   04:40:49 33,33  
213 325 DUBELLOY Hervé A 45 EC Tourcoing 04:40:52 33,32  
214 199 VAN DEN MEERSSCHE Ringo A 46 BBR 04:41:02 33,30  
215 388 ABEELE Michael B 70   04:42:25 33,14  
216 34 MARTENS Bob A 47   04:43:17 33,04  
217 182 RAUX Frédéric C 61   04:43:42 32,99  
218 168 COCQUET Etienne B 71 Club Phalempin 04:43:43 32,99  
219 344 THELLIER Olivier B 72 Team Compétition Cycliste Haillicourt 04:43:44 32,99  
220 350 LOUIS Damien B 73   04:43:47 32,98  
221 55 LE GOUSSE Eric C 62 LE TEAM 04:43:58 32,96  
222 319 BARBIER Eric C 63 CNP 04:43:58 32,96  
223 296 DUBOIS Olivier B 74 Cycloteam Landrecies 04:43:59 32,96  
224 201 VAN DEN BRANDE Bart B 75   04:44:26 32,91  
225 331 HANQUIEZ Jérôme C 64 WIZERNES 04:45:12 32,82  
226 118 VERLET Didier C 65   04:45:14 32,81  
227 322 PICQUENDAR Damien D 21 vélo club watten 04:45:14 32,81  
228 104 WESTELYNCK Stéphane C 66   04:45:17 32,81  
229 60 CROCHON François B 76   04:45:17 32,81  
230 442 GERMONPREZ David B 77   04:45:20 32,80  
231 93 BOUCHER Eric D 22 ASS SARTROUVILLE 04:45:21 32,80  
232 127 SAVARY Vianney A 48   04:45:28 32,79  
233 396 CASTELLE Jerome B 78   04:45:28 32,79  
234 107 HELLIN Olivier C 67 VCU ROUBAIX 04:47:11 32,59  
235 305 BOUTIN Christian E 12   04:47:12 32,59  
236 75 LEJEUNE Emmanuelle SE 1 Team Mailleux 04:47:31 32,55  
237 74 WEGNZ Didier B 79 Team Mailleux 04:47:32 32,55  
238 225 GAY Bernard D 23   04:47:45 32,53  
239 174 JEZIOROWSKI Frédéric C 68 CC St pol sur mer 04:48:40 32,42  
240 132 VANHEMS Fréderic B 80   04:49:22 32,35  
241 382 DELFORTERIE Arnaud B 81   04:49:29 32,33  
242 198 MARTIN Alain E 13 JS DELOISE CYCLISME 04:49:32 32,33  
243 217 VANDER MASSEN Hélène SE 2   04:49:32 32,33  
244 302 LETAILLEUR Christian C 69   04:49:36 32,32  
245 307 TUTIN Jean-Claude D 24 cyclo club Villers-cotterets 04:49:36 32,32  
246 141 MERLEVEDE Frédéric C 70 CC BOESCHEPOIS 04:49:36 32,32  
247 479 LLORENS Alexandre B 82   04:49:37 32,32  
248 401 JULIEN Jean Marc C 71   04:49:37 32,32  
249 151 BAMME Eric C 72   04:49:38 32,32  
250 321 MOSTAFA Assal C 73 vélo club watten 04:49:38 32,32  
251 351 LANTREBECQ Benjamin A 49   04:49:39 32,31  
252 88 BECUE Christophe C 74   04:49:39 32,31  
253 229 BAUCHET Laurent C 75 TEAM CYCLISTE BUSSY St GEORGES 04:49:46 32,30  
254 395 JACOBS Nicolas A 50   04:49:50 32,29  
255 332 CLEMENT Kaurent B 83   04:51:12 32,14  
256 394 FREESTONE Graeme C 76   04:51:55 32,06  
257 145 GANTOIS Bernard B 84   04:51:55 32,06  
258 253 LOVINY ROMAIN A 51 CC ARMENTIERES 04:52:04 32,05  
259 275 MOUTON Jean-François C 77 VC Aredien 04:52:28 32,00  
260 173 LAGGER Gérard E 14 CC ORCHIES 04:52:29 32,00  
261 472 DELICAET Len B 85   04:52:29 32,00  
262 143 WERY Richard E 15 HOUCHAIN 04:52:30 32,00  
263 52 BALOUZAT Pascal C 78 VELO CLUB SAINT CLAUDE 04:52:32 32,00  
264 120 LIEPPE Didier D 25   04:52:34 31,99  
265 439 DELPT Luc D 26   04:52:34 31,99  
266 153 MEURIN Patrice C 79 AL VERTUS EN CHAMPAGNE 04:52:35 31,99  
267 286 GABELLES Maurice D 27 Inchy Beaumont 04:52:35 31,99  
268 94 RAVAGNI Lionel C 80 ASS SARTROUVILLE 04:52:35 31,99  
269 434 GILLOT Vincent C 81   04:52:38 31,98  
270 339 VANDAMME Jean-Michel D 28   04:52:41 31,98  
271 123 Noël Hervé E 16 CC BOESCHEPOIS 04:52:42 31,98  
272 200 VAN DEN MEERSSCHE Mark B 86 BBR 04:53:06 31,93  
273 463 LESE Alan E 17   04:53:19 31,91  
274 51 VANBRUAENE Stéphane B 87 CC CAMBRAI 04:53:36 31,88  
275 203 WOLVERT Geoffray B 88 CLUB CMCAS DES SERVICES CENTRAUX 04:53:38 31,88  
276 83 FACHE Philippe D 29   04:53:41 31,87  
277 108 PINATON Bernard D 30   04:53:42 31,87  
278 258 LEJEUNE Eric C 82 Cyclo Club Bucquoy 04:53:43 31,87  
279 433 BLONDEL Francois A 52   04:53:43 31,87  
280 354 POULAIN Patrice C 83 Rayon d'Or Asseventois 04:53:46 31,86  
281 147 CRETON Serge E 18 Club Richebourg 04:53:47 31,86  
282 84 VANDENBON Guy C 84 Club Neutre Nord Pas de Calais 04:53:51 31,85  
283 376 DUGARDIN Philippe C 85 Lomme Triathlon 04:55:12 31,71  
284 329 DAGNEAU Christophe C 86   04:55:19 31,69  
285 85 DELVART Bernard E 19   04:55:36 31,66  
286 177 DANRE Benoit C 87 Vélo Club Blérois 04:55:59 31,62  
287 148 BOUQUET Patrice B 89 Club Richebourg 04:56:53 31,53  
288 481 HERBRETEAU Eric C 88   04:56:57 31,52  
289 116 DELHAY Jean – Noël B 90 LES CYCLANTHROPES 04:57:55 31,42  
290 121 LIEPPE Wilfried B 91   04:58:00 31,41  
291 213 PIWOWAREK Stanislas E 20 Etaples 04:58:02 31,40  
292 46 DECHERF Olivier B 92   04:58:05 31,40  
293 89 GHESTEM André D 31   04:58:06 31,40  
294 375 DUPONT Ronald B 93   04:58:28 31,36  
295 390 MARTIN Medhi B 94   04:59:32 31,25  
296 155 LEPRETRE David B 95 St Pathus Oissery Ent. Sport Cycl 05:00:05 31,19  
297 210 WAUTERS Gert B 96   05:00:33 31,14  
298 326 BOSSO Nicolas C 89 Les Tritons Meldois 05:00:39 31,13  
299 478 EBERWEISER Werner C 90   05:01:06 31,08  
300 18 CAPIAUX Dominique D 32 AC BOUSIES 05:01:07 31,08  
301 241 GARCIA THOMAS B 97 CC BOURG BLANC 05:01:09 31,08  
302 165 SIBILE Michel D 33   05:01:13 31,07  
303 26 DELVA JACKIE SE 1   05:02:18 30,96  
304 230 BAILLIEUL Loick A 53   05:03:15 30,86  
305 469 ALLARD Thierry C 91   05:03:15 30,86  
306 431 JOSEPH Loic C 92   05:03:15 30,86  
307 310 HUCK Armand C 93 Wiizernes 05:03:51 30,80  
308 250 BERNARD CLAUDE D 34 UNIVERS CYCLISTE 05:04:24 30,75  
309 421 LECLERC Alexis B 98   05:04:51 30,70  
310 102 MASSON Bertil B 99 Cyclo Centre Estinnes 05:04:56 30,69  
311 403 LIBERKOWSKI Laurent C 94   05:04:57 30,69  
312 260 MARTON Laszlo C 95 US ST POL SUR MER 05:04:58 30,69  
313 111 TAHON Denis X 9   05:05:50 30,60  
314 170 HAMEAUX Pierre D 35 Olympique Grande Synthe 05:06:04 30,58  
315 359 DROUIN Nelly / Gérard D 36 Patriotes de Bonnetable 05:06:09 30,57  
316 29 TROY Jacqueline SE 2 Sallaumines 05:06:10 30,57  
317 335 BLANQUET Olivier C 96 Sallaumines 05:06:10 30,57  
318 57 PREVOT Grégory B 100   05:06:10 30,57  
319 475 LEULIET Henri C 97   05:06:10 30,57  
320 206 CAIGNET Francis D 37 CYCLO CLUB SECLIN 05:06:12 30,57  
321 204 CAIGNET René E 21 UNION SPORTIVE DES CHEMINOTS 05:06:12 30,57  
322 154 LECOEUVRE Jean – François D 38 Espoir Cycliste Guyanais 05:06:12 30,57  
323 287 MALESYS Christophe A 54 VC Sanclaudien 05:06:13 30,57  
324 191 MALET Laurent B 101 ASS OMSJC DE BOESCHEPE 05:06:14 30,56  
325 306 BOISSADIE Jean E 22 cyclo club Villers-cotterets 05:06:14 30,56  
326 330 PRUVOST Benoit B 102 Saint Amand 05:06:18 30,56  
327 255 LELEU Fabrice B 103 ENTENTE SPORTIVE DE VILLIERS SUR MARNE 05:07:03 30,48  
328 157 MONNIER Jean – Luc E 23 VELO CLUB DOMFRONTAIS 05:07:38 30,43  
329 32 LEVAILLANT Alain E 24   05:08:07 30,38  
330 458 COUSIN Jean gabriel B 104   05:08:35 30,33  
331 33 MASSELIS François E 25   05:09:05 30,28  
332 338 SAINSBURY Douglas C 98   05:09:34 30,23  
333 349 LEROUGE Serge B 105 155 05:10:03 30,19  
334 17 COUDRAY Sylvie G 1 CS BONNEVILLE 05:10:33 30,14  
335 360 DILLIES Jean Paul C 99   05:11:00 30,09  
336 271 VANDECASTEELE Arnaud B 106   05:11:31 30,05  
337 470 NAEYE Xavier B 107   05:11:59 30,00  
338 103 LACROIX Frédéric B 108 Sport Bauvinois 05:12:27 29,96  
339 256 CHARUEL Jean-Yves E 26 Château Thierry 05:12:57 29,91  
340 171 MAMETZ Sébastien B 109   05:13:26 29,86  
341 459 MEYNARDIE David B 110   05:13:55 29,82  
342 37 HANNIER Patrick D 39   05:14:54 29,72  
343 400 LEO Jean Yves D 40   05:15:24 29,68  
344 266 SAUVE Stephane B 111 Huchenville Turtle Bike 05:15:53 29,63  
345 202 POIGNIE Alain D 41 CLUB CMCAS DES SERVICES CENTRAUX 05:16:21 29,59  
346 22 PARIZOT Jérôme B 112   05:16:28 29,58  
347 248 DUVINAGE JEAN E 27 LE GUIDON ALZINGEN 05:16:31 29,57  
348 345 LEFEBVRE Mathieu B 113 Racing Club d'Arras Triathlon 05:16:37 29,56  
349 124 WILLIAMS Tony C 100 Equipe Flamme Rouge 05:16:37 29,56  
350 166 BEDAGUE Emmanuel C 101 TEAM LE GREVES 05:16:38 29,56  
351 233 HUON Daniel E 28 ENTENTE CYCLISTE CREILLOISE 05:16:52 29,54  
352 288 LAGADEC Jean-Yves C 102   05:16:57 29,53  
353 228 DIART Thomas B 114   05:17:06 29,52  
354 134 DAVY Richard C 103   05:19:09 29,33  
355 175 MEUNIER Laurent B 115   05:19:24 29,30  
356 447 VERMESCH Thierry C 104   05:21:49 29,08  
357 247 GONDEK SERGE E 29 VTT DU SERVOIS 05:21:50 29,08  
358 276 COUZIN Ludovic B 116 BC Longuenesse 05:23:24 28,94  
359 409 DUBOIS YANNICK B 117   05:24:47 28,82  
360 372 COENE Alain E 30   05:25:49 28,73  
361 197 D'HENRY Eric B 118 CYCLANTHROPES 05:26:19 28,68  
362 169 BOCHET Christophe C 105 US CRETEIL 05:27:59 28,54  
363 273 GONDEK Patrick D 42   05:27:59 28,54  
364 137 COUDRAY Xavier C 106 CS BONNEVILLE 05:28:39 28,48  
365 313 TOURSEL Johann A 55 usobl cyclisme 05:29:27 28,41  
366 195 MESSIANT Frédéric C 107   05:29:35 28,40  
367 272 WALLAERT Guillaume C 108 ASPTT Amiens 05:30:11 28,35  
368 281 SALLEN Françis C 109 Procter et Gamble 05:30:45 28,30  
369 405 WOSTYN Sebastien B 119   05:30:50 28,29  
370 369 GIBOWSKI Alain B 120   05:31:04 28,27  
371 181 SENECHAL David B 121   05:31:05 28,27  
372 300 KUCH Jean-Michel C 110 Houchin 05:31:09 28,26  
373 215 DIERKENS Serge D 43   05:31:41 28,22  
374 267 LEBAIL Philippe D 44 US HAM 05:33:59 28,02  
375 303 BOURDOT Yann B 122   05:34:08 28,01  
376 101 PAGNY Jérôme C 111 TSF Tige de Selle Fontenoysienne 05:36:39 27,80  
377 232 CARON Michel D 45   05:36:47 27,79  
378 315 BENOIT Jean-Michel C 112 Houchin 05:36:58 27,78  
379 221 COLEAUX Michel C 113 Club Neutre Nord Pas de Calais 05:38:30 27,65  
380 429 ENSCH Daniel C 114   05:39:51 27,54  
381 259 LEBRIEZ Laurent B 123 Valeo 05:41:10 27,43  
382 224 GOURIN Didier C 115 QUIMPER CYCLO CLUB 05:41:19 27,42  
383 138 DEQUEKER Willy B 124   05:41:28 27,41  
384 96 LOZANO Christian D 46 LES BLEUS DE France 05:41:29 27,41  
385 95 PLAIS Guy E 31 UC DOMONT 05:41:29 27,41  
386 257 MOTIN Michel E 32 LE HAVRE 05:41:32 27,41  
387 244 DESPREZ DOMINIQUE C 116 VTT DUSERVOIS 05:41:33 27,40  
388 352 MALHEUDE Marc C 117 VTT Servois 05:41:33 27,40  
389 196 LAGADEC Jérôme B 125   05:41:38 27,40  
390 308 MEYER Grégory B 126   05:41:38 27,40  
391 327 DELAIRE Dominique D 47 ASPPT Boulogne /Mer 05:47:28 26,94  
392 214 TRINEZ Jean François C 118   05:47:29 26,94  
393 341 LAGULLE Hervé C 119 VCA 05:52:49 26,53  
394 426 O'NEILL Leah A 56   05:53:22 26,49  
395 262 DEVRED Alain D 48 SC Val d'Arée 05:53:28 26,48  
396 265 BELGUISE Hervé D 49 AS CAS EDF GDF 05:53:28 26,48  
397 264 MERLOT Marc E 33 AS CAS EDF GDF 05:53:29 26,48  
398 317 HOLMES Tim C 120   05:53:30 26,48  
399 251 FUNK Lionel C 121   05:57:27 26,19  
400 163 HAZARD Jean – Jacques D 50 Club Neutre Nord Pas de Calais 05:57:28 26,18  
401 234 DETIS Paul D 51 CYCLO CLUB SECLIN 05:59:16 26,05  
402 176 CHOCHOY Christian E 34   06:03:13 25,77  
403 205 DONNEZ David C 122 ASS CLUB CYCLO VTT MARCHE VIEUX CONDE 06:03:13 25,77  
404 25 BERNADET Laurence E 35   06:05:41 25,60  
405 194 LARCHEVEQUE Bernard E 36 US CRETEIL 06:06:23 25,55  
406 140 BERTAUX Jean- Marie E 37 Union Sportive de Créteil Cyclo 06:06:23 25,55  
407 44 MAMPAEY Philippe D 52   06:08:07 25,43  
408 311 RICHARDSON Peter B 127   06:09:04 25,36  
409 2 ALBESSARD Yves D 53   06:09:10 25,35  
410 346 DUHAMEL Eric D 54 club des 4 poteaux 06:27:11 24,17